IRS-P5 (CARTOSAT-1)

Last updated on Sun Dec 14 2025 00:02:31 GMT+0000 (Coordinated Universal Time)

1 28649U 05017A 25347.08478848 .00002917 00000+0 30479-3 0 9994 2 28649 97.5498 13.4828 0001203 47.6046 312.5275 14.90406572116092
UTC large
Height (km)
Speed (km/s)
/
Latitude / Longitude
Inclination (degrees)
Orbital Period (minutes)
Azimuth
Elevation
Range (km)
Doppler Factor

Next 0 passes for location: London (51.5072 / 0.1276)

Sorry there are no passes over London.